Wind_Speed
10 9 7 6 4 1 1 1 3 0 4 8 11 7 2 3 2 4 12 22 22 11 4 6 5 4 5 3 3 4 2 2 4 4 3 3 3 3 3 5 6 6 6 5 4 4 3 4 5 3 3 2 1 2 2 3 2 1 1 1 1 3 2 1 4 4 6 9 9 9 8 5 5 3 1 0 2 2 3 3 1 1 4 6 6 6 2
11 10 8 7 4 1 2 2 1 2 8 12 11 6 2 2 1 2 10 22 20 8 6 7 7 6 6 6 7 6 4 5 5 6 7 6 5 5 5 5 6 5 5 5 5 4 3 4 5 3 3 1 3 4 3 3 2 1 1 1 1 1 1 1 1 3 4 5 6 5 3 3 1 2 3 3 3 5 4 3 2 2 5 7 6 4 2
11 10 8 7 6 4 5 4 1 2 8 12 10 3 2 2 2 1 6 15 14 6 4 5 6 9 10 9 9 7 5 6 7 8 8 6 4 3 3 3 2 3 4 4 5 5 3 3 2 1 1 1 3 4 5 6 4 2 3 2 1 1 1 2 2 4 5 5 4 2 1 2 2 3 5 6 7 8 5 3 3 4 5 5 5 6 5
12 9 8 8 8 8 7 5 3 3 5 10 8 3 3 3 3 1 3 6 6 4 2 3 4 7 9 8 9 11 9 5 5 7 7 6 5 3 2 1 2 2 5 4 4 5 4 3 2 0 1 2 2 2 6 7 5 5 4 3 2 1 1 2 5 6 6 7 7 4 3 3 4 6 7 8 9 9 6 4 6 6 5 5 8 10 9
13 10 9 9 8 9 7 5 4 3 3 7 6 3 3 3 3 4 4 3 4 4 5 5 5 5 7 5 6 11 12 7 4 5 5 4 5 5 4 4 3 4 5 5 5 6 5 6 5 5 4 2 2 4 6 6 4 5 3 1 2 2 2 5 6 7 7 8 9 9 8 7 7 8 10 11 10 9 8 8 7 5 5 8 10 10 11
12 11 9 9 9 10 8 6 6 4 2 5 5 3 3 3 2 2 2 2 5 7 8 9 8 8 7 4 4 8 11 10 6 4 3 1 3 4 5 7 8 7 7 5 4 5 6 6 6 6 5 3 3 4 5 3 3 3 2 0 3 3 3 5 5 6 8 9 10 9 8 8 7 9 11 12 13 13 12 11 10 7 8 10 11 13 14
14 12 11 11 11 12 11 8 8 6 3 4 4 3 4 2 2 3 2 1 4 6 8 9 10 12 10 5 6 8 9 9 6 4 4 2 2 3 4 6 7 6 7 6 5 5 5 4 4 2 2 1 3 3 2 1 3 3 3 0 1 2 3 4 4 5 8 9 9 8 6 7 9 11 12 14 16 16 14 12 13 12 13 14 14 15 15
15 14 13 14 14 14 13 10 10 9 6 5 5 5 4 1 1 1 1 1 1 0 4 7 8 10 11 8 8 7 7 8 4 5 5 4 4 5 6 6 2 0 2 4 5 4 2 2 2 2 3 1 1 1 0 1 2 2 2 1 2 0 2 2 1 2 6 8 8 6 5 7 9 11 14 16 16 15 13 13 13 12 13 14 14 14 12
17 15 15 15 15 15 14 12 11 10 7 5 5 6 5 2 2 2 1 1 2 1 1 5 6 7 9 9 8 7 8 9 5 2 2 3 4 6 6 5 3 3 1 1 1 2 6 6 4 4 4 2 2 1 1 3 3 1 1 0 1 1 2 2 1 2 7 8 7 6 5 5 8 13 17 18 15 13 12 11 10 11 13 14 13 11 9
17 16 15 16 16 15 15 13 13 12 9 7 5 4 4 2 3 4 2 1 3 3 2 4 5 6 7 8 8 7 7 8 6 3 1 3 2 1 4 6 4 3 2 1 2 5 7 7 5 4 4 3 3 2 1 3 3 3 2 1 2 2 2 1 2 3 6 7 6 3 1 3 8 12 13 14 14 13 12 11 11 13 12 10 9 7 5
18 17 16 16 16 16 15 15 14 13 12 10 6 5 4 2 3 3 2 2 3 4 3 4 5 5 5 6 8 7 6 6 7 5 2 2 2 3 4 5 4 2 2 3 5 6 7 6 4 4 4 3 1 0 1 2 3 5 4 2 2 4 3 3 3 3 5 7 5 2 2 7 9 4 4 8 10 10 10 10 10 11 8 6 7 6 2
19 18 17 17 17 16 16 16 16 15 14 12 9 7 5 3 3 2 2 3 3 4 4 4 5 3 2 4 4 3 3 3 2 0 2 3 3 3 3 4 4 2 3 5 5 6 5 4 3 3 1 1 2 3 5 6 6 5 5 5 4 5 4 4 4 3 4 4 3 3 8 9 4 1 4 6 5 5 8 10 10 10 9 9 9 5 2
19 19 18 18 18 17 17 17 17 16 16 14 11 9 6 3 2 2 2 2 3 3 4 2 1 2 2 2 4 4 4 5 5 4 5 5 4 3 2 2 3 4 5 5 5 5 4 2 2 2 3 2 2 6 9 11 10 8 8 7 6 5 5 4 3 4 3 3 4 7 7 4 3 3 3 1 2 5 7 8 8 9 7 5 1 4 7
20 20 19 19 19 19 18 18 18 18 17 16 13 10 7 5 4 3 2 2 3 2 4 3 1 3 4 5 5 5 4 5 5 4 4 3 4 4 2 3 4 6 6 5 4 4 2 0 1 2 3 0 1 5 8 9 11 11 11 10 8 7 5 3 3 4 4 4 7 7 7 8 8 7 3 0 2 3 3 3 4 4 2 2 6 8 6
21 20 20 20 19 19 19 19 19 18 18 17 15 12 9 7 7 5 3 0 2 2 3 3 3 6 6 6 6 5 3 3 3 3 4 3 3 3 3 4 5 5 6 5 2 2 2 2 2 1 2 2 1 3 2 2 4 6 7 7 7 6 6 5 4 5 4 4 6 6 7 8 5 3 1 1 2 2 1 0 2 3 2 3 9 8 5
22 21 21 21 21 20 20 19 19 19 19 18 17 15 11 9 9 6 3 1 1 2 2 1 2 6 5 3 6 7 4 4 4 3 2 1 3 3 3 5 5 4 5 3 1 3 3 3 3 3 3 3 2 1 1 0 1 1 2 3 2 2 4 5 4 5 5 5 6 7 7 5 3 5 4 3 3 3 5 4 3 2 0 4 8 7 5
22 22 22 22 21 21 21 20 19 19 19 19 19 17 13 11 11 8 2 0 2 2 1 3 3 5 4 2 4 4 3 3 4 3 2 3 4 3 2 4 5 2 4 3 1 2 3 3 3 3 4 3 4 1 1 2 1 1 2 4 3 1 2 3 5 6 8 8 7 6 5 4 3 6 5 4 3 5 5 6 5 4 4 4 6 5 4
22 23 23 24 24 24 23 23 22 21 21 21 20 18 14 12 13 11 4 1 2 2 1 1 2 3 2 2 3 3 2 3 4 3 3 2 3 3 3 2 2 2 2 3 2 3 4 4 4 4 3 2 3 1 2 3 2 3 3 3 2 2 1 3 6 8 9 9 7 5 5 5 6 6 5 3 4 4 3 8 5 4 6 4 5 5 6
23 24 26 26 26 26 25 25 24 24 23 22 21 19 16 14 16 15 7 1 3 3 1 3 3 2 1 3 2 2 1 2 3 5 4 1 2 5 4 1 0 1 1 2 2 3 4 3 3 3 2 3 2 2 3 4 3 3 5 4 3 3 1 2 5 6 6 7 6 6 6 3 4 3 3 2 4 1 5 6 3 6 8 6 5 6 6
24 25 26 27 26 26 26 26 26 25 25 24 22 20 17 16 17 18 12 4 1 3 3 3 5 4 2 3 4 3 2 2 2 4 4 3 4 8 5 1 2 2 3 4 3 2 3 4 3 3 3 4 2 2 2 3 2 3 5 4 3 4 3 3 4 5 4 5 6 6 6 2 5 4 1 1 4 4 4 2 3 7 7 6 6 6 6
24 24 24 25 25 25 25 26 27 27 28 28 26 22 19 18 18 19 17 9 2 2 3 3 5 7 8 6 6 6 6 5 5 4 4 3 5 6 4 4 5 4 3 4 4 2 3 4 3 2 2 3 2 2 2 1 3 4 3 2 1 2 4 3 4 4 4 4 5 5 3 3 5 6 3 4 5 4 5 5 4 6 6 5 5 6 6
24 23 23 24 24 23 23 24 25 26 28 29 29 24 20 20 20 20 19 15 8 4 4 3 3 8 14 14 11 8 7 9 8 5 3 4 4 4 2 4 5 4 2 3 3 2 2 3 3 2 2 3 4 3 3 3 2 4 1 2 2 5 6 6 6 5 5 5 5 3 1 2 4 6 6 6 7 6 5 6 5 5 5 5 5 6 6
25 25 24 25 24 23 23 24 24 24 25 26 27 26 22 21 22 23 21 16 10 8 9 8 7 8 12 15 15 13 11 11 10 6 3 4 3 3 2 3 3 2 1 3 4 4 3 3 3 3 2 3 4 4 4 4 4 3 2 2 5 7 6 5 5 6 5 5 6 5 5 7 6 6 6 7 7 7 7 6 6 7 6 6 6 6 6
24 25 25 25 25 25 25 26 25 25 25 24 25 27 25 23 24 23 17 9 4 4 6 6 6 9 12 14 18 19 18 17 15 13 12 9 5 2 3 4 4 2 1 4 3 3 2 2 2 2 3 3 4 4 4 5 4 4 3 4 4 5 7 6 5 6 6 5 5 6 7 9 9 7 6 7 8 8 7 7 7 7 7 7 7 7 7
24 25 26 26 26 26 26 26 26 25 26 26 26 26 24 22 24 25 18 7 3 3 3 4 11 21 22 16 17 22 24 24 22 20 20 17 11 6 5 6 8 7 5 4 3 3 1 2 2 3 4 3 3 4 5 5 4 4 5 5 4 4 6 7 7 8 8 7 7 8 9 10 9 8 6 6 7 8 8 7 7 7 7 7 7 7 6
23 24 25 25 26 26 25 25 26 26 27 27 27 27 25 23 25 27 21 9 1 1 4 3 7 16 19 16 19 25 27 26 25 24 24 24 21 16 10 5 5 6 3 3 4 4 3 3 3 4 6 4 4 5 4 4 4 4 5 7 6 4 6 6 5 6 7 6 7 8 9 9 10 10 8 8 9 9 9 8 7 6 7 6 5 6 6
21 23 23 23 25 27 26 26 26 27 27 25 24 26 26 25 26 29 26 15 4 1 5 5 2 5 12 16 23 27 25 25 27 27 26 26 24 21 15 7 3 3 3 2 3 3 3 4 5 5 5 4 4 4 3 4 5 4 5 7 6 6 8 8 5 5 6 6 7 7 6 7 9 10 10 10 10 9 9 8 6 6 7 6 6 5 5
20 21 21 21 22 25 25 26 27 28 27 25 24 26 28 27 27 29 32 30 18 4 2 3 0 1 4 10 19 24 24 25 28 26 25 26 26 22 16 9 5 4 4 3 3 3 4 5 5 5 4 3 3 5 4 5 5 4 6 9 9 8 10 9 7 7 8 7 7 7 6 7 8 8 9 8 7 7 8 7 7 7 7 7 7 6 6
20 20 20 20 21 22 23 23 25 26 27 26 24 23 24 26 29 31 33 35 28 10 0 1 2 0 1 4 12 20 23 24 26 25 22 23 23 20 15 10 7 7 6 5 4 5 5 6 5 4 3 3 2 4 5 5 6 7 11 15 14 12 12 12 11 10 9 9 8 7 7 8 9 9 9 8 6 7 8 8 8 8 7 7 7 7 6
21 21 21 20 20 21 22 22 22 24 26 25 20 13 8 12 27 37 36 35 31 16 2 1 3 2 1 2 7 15 20 22 23 23 21 17 16 16 16 12 8 7 6 5 6 6 5 4 5 6 5 5 3 2 3 4 5 9 14 16 15 14 14 13 12 13 12 11 9 8 9 11 10 9 8 8 6 7 7 7 7 7 7 7 6 5 4
22 22 22 22 22 21 22 22 22 23 23 20 12 5 2 1 15 30 37 39 34 18 3 2 3 1 0 2 5 12 20 22 20 18 18 16 14 15 17 14 8 7 7 5 5 6 4 4 5 6 7 9 7 3 2 4 6 10 14 14 12 13 14 12 12 13 12 11 10 10 10 11 10 9 10 9 7 8 7 5 4 5 7 7 6 6 6
22 23 22 23 23 23 22 22 21 22 23 21 15 11 8 4 5 13 27 38 32 13 1 3 4 1 1 2 3 8 16 19 15 11 12 13 12 11 13 11 7 7 8 6 3 4 4 5 6 7 8 9 7 3 3 6 10 13 14 12 11 11 12 11 12 12 11 10 10 10 11 12 12 13 12 8 5 7 6 5 6 8 9 8 7 7 6
21 22 22 23 23 23 23 23 21 20 21 22 23 25 25 18 8 5 16 27 21 6 2 3 2 1 3 0 1 4 11 10 7 6 7 9 8 7 7 7 5 6 8 7 3 2 3 4 7 7 6 5 4 2 4 9 13 14 14 14 13 12 11 11 11 10 10 9 9 10 12 13 12 9 5 3 5 6 7 8 9 9 8 7 6 5 6
19 19 21 21 21 22 23 22 21 21 18 15 19 26 30 28 19 11 16 20 10 1 2 3 0 1 3 2 3 6 12 8 5 6 7 7 7 6 5 5 5 5 6 5 3 2 3 4 5 5 4 4 5 4 6 11 15 15 14 15 15 13 11 11 11 11 11 11 10 10 10 6 2 2 4 6 6 6 8 9 8 8 6 5 5 6 6
16 17 17 17 17 19 21 21 21 19 14 10 12 17 21 23 22 20 24 22 8 1 2 3 1 2 3 1 2 6 10 7 4 5 5 5 6 6 4 4 5 5 4 4 3 4 5 5 4 3 4 4 5 5 7 13 17 16 14 16 15 13 11 11 12 12 10 8 7 5 2 4 5 5 6 6 6 6 7 6 6 7 6 6 6 6 6
15 15 15 14 13 14 15 17 18 15 9 7 9 10 12 15 17 22 28 24 10 2 2 3 2 4 5 4 3 4 6 5 3 4 4 2 3 4 3 3 4 4 2 3 3 6 7 5 3 3 5 5 6 9 11 14 16 16 16 16 15 11 11 13 14 13 6 0 1 1 4 5 6 6 5 6 6 6 6 6 6 6 7 7 6 6 6
14 14 13 11 9 8 7 8 12 13 10 9 9 8 9 10 10 14 18 14 7 3 2 1 3 4 4 4 2 3 4 4 2 3 3 2 1 2 2 2 3 2 2 3 6 7 6 4 3 4 7 8 11 14 13 12 13 15 16 15 12 9 10 11 11 7 2 3 3 1 2 2 4 5 5 6 7 7 7 8 7 7 7 7 7 6 6
12 13 12 7 3 3 4 6 9 12 14 13 11 8 6 5 5 4 5 5 4 4 3 2 3 3 3 2 3 4 4 3 2 2 2 2 1 1 1 1 3 3 2 4 5 4 3 3 4 6 9 11 13 15 13 11 13 14 13 11 9 9 9 8 6 7 7 3 4 4 3 4 7 7 6 7 7 7 6 6 5 5 5 5 5 6 6
11 9 7 5 4 4 3 3 6 12 15 15 12 6 2 2 2 2 2 2 2 3 3 3 5 5 5 5 5 4 4 3 3 3 4 3 3 3 2 1 2 2 2 4 4 4 4 4 5 6 9 10 12 14 14 14 14 13 10 8 8 7 6 6 6 7 7 7 5 4 5 5 7 8 7 6 5 5 4 4 5 5 5 6 7 7 7
10 7 3 3 4 6 5 4 11 15 13 9 5 3 1 2 3 2 2 2 2 2 3 3 4 5 8 9 8 5 5 5 5 5 5 4 3 2 2 1 2 2 3 4 3 4 3 4 4 6 9 9 11 14 15 14 13 11 7 7 6 4 5 5 3 2 3 3 3 3 3 2 1 3 5 7 7 6 5 5 5 6 7 7 7 7 6
6 4 3 3 3 5 7 11 14 12 6 2 2 2 2 3 2 1 2 4 4 2 2 3 4 6 9 10 9 7 5 5 3 3 4 3 1 3 3 2 1 2 3 4 3 3 3 3 4 7 9 9 11 14 14 11 9 6 4 4 5 5 6 6 5 5 5 6 5 4 5 5 5 4 3 3 5 6 5 5 6 7 8 8 7 6 5
9 7 5 3 2 4 7 9 7 3 1 2 2 2 2 1 1 0 1 3 3 2 2 3 5 6 7 7 6 4 3 3 2 2 3 3 2 3 3 2 1 2 3 3 3 3 3 4 5 8 9 9 11 12 11 8 7 6 5 5 5 6 6 7 6 6 6 6 5 4 5 7 6 6 6 6 7 7 6 6 7 8 8 7 6 6 5
16 12 6 3 2 2 3 3 1 0 1 2 2 2 2 1 0 1 2 2 1 1 1 1 1 1 2 4 2 0 0 2 2 1 2 2 2 2 2 2 2 2 1 1 2 3 4 5 7 8 7 7 9 10 8 6 5 6 5 4 5 6 7 7 7 7 8 9 8 7 8 9 8 7 7 9 9 8 6 5 6 7 6 6 6 6 6
12 7 3 1 2 2 3 2 1 2 3 3 3 4 5 4 4 4 4 2 2 3 3 2 3 3 4 3 2 1 1 2 2 1 1 2 2 2 2 3 2 1 1 1 2 3 3 4 6 6 5 6 8 7 6 6 7 7 6 4 5 6 7 7 8 7 7 8 9 9 10 10 9 8 7 7 7 7 6 5 5 5 5 5 6 7 8
5 3 2 2 2 2 3 2 1 2 4 5 4 4 5 6 7 6 5 3 3 4 4 4 5 5 4 2 1 1 2 2 2 2 2 2 1 2 2 2 1 1 1 2 2 2 4 5 5 5 7 9 7 5 5 5 6 7 8 6 5 6 7 7 7 7 6 6 7 8 8 8 8 8 7 6 5 5 5 5 4 4 4 5 7 8 9
3 2 3 3 3 3 3 3 2 2 3 4 4 5 6 6 6 5 4 4 4 5 6 7 6 6 5 2 1 1 2 2 2 2 2 2 2 2 1 1 1 1 2 3 3 5 7 8 6 6 8 7 5 5 5 4 5 6 7 8 7 6 6 7 7 6 6 6 7 7 7 7 7 7 6 5 4 3 3 3 4 4 5 6 8 9 9
3 2 2 2 3 3 4 4 3 2 1 1 2 3 4 3 2 2 3 4 5 6 6 4 3 2 2 2 1 1 1 2 2 2 2 2 1 1 1 1 2 2 3 5 7 7 6 6 6 6 5 3 6 6 5 5 5 6 6 7 7 7 7 7 7 6 7 7 7 6 6 7 7 7 6 5 3 2 2 2 3 4 5 7 8 9 9
2 2 3 2 3 4 4 3 1 1 1 0 1 2 3 1 1 2 2 3 5 7 6 5 3 2 1 0 2 2 1 1 1 2 2 2 1 1 1 2 3 2 3 5 7 6 5 5 4 3 2 4 6 7 6 6 6 6 7 8 8 8 8 7 7 7 8 8 7 6 7 8 7 6 5 3 1 1 1 1 2 3 5 7 8 9 10
1 1 1 1 1 2 2 1 1 1 2 1 1 1 2 2 3 3 2 1 4 6 5 4 4 3 2 1 2 2 2 2 2 2 1 2 2 2 2 2 3 4 4 5 5 5 4 3 1 3 3 4 4 5 5 5 5 6 7 7 7 7 7 7 7 8 9 9 8 7 7 8 6 5 4 3 1 1 2 3 4 5 6 7 8 9 10
1 1 1 1 1 1 1 2 2 3 2 1 1 1 2 2 3 4 2 1 1 3 4 4 3 3 2 2 2 1 2 2 2 2 2 3 3 2 2 3 5 5 4 4 3 2 1 1 2 3 4 4 4 4 4 5 6 6 6 6 6 7 7 8 9 9 9 9 9 8 8 7 6 5 4 3 3 3 4 5 5 5 6 6 7 8 10
1 1 1 1 2 2 2 3 2 3 3 3 3 3 2 2 2 2 2 1 1 3 3 2 2 3 3 2 3 2 1 1 2 2 2 3 3 3 3 6 6 4 2 1 0 2 3 2 1 2 3 4 4 4 4 5 6 6 6 6 8 8 9 10 10 10 9 8 8 7 7 6 5 4 4 3 3 3 4 5 4 4 5 6 7 9 11
1 1 0 0 2 2 2 2 2 2 2 2 1 1 1 2 1 2 2 1 2 3 2 1 2 3 2 2 2 1 1 1 1 3 3 2 2 3 4 4 4 2 1 1 2 2 3 3 2 1 2 3 4 5 6 7 7 7 7 7 8 8 8 9 9 10 9 8 7 6 6 5 4 4 3 3 1 1 3 5 6 6 7 9 10 11 12
Wind_Direction
150 159 162 163 173 218 220 270 317 285 154 162 169 178 230 226 195 130 164 175 168 159 210 199 182 220 212 201 210 187 184 232 198 172 176 189 186 191 211 214 220 222 222 229 214 192 207 220 218 229 228 224 12 64 111 82 52 43 82 158 105 57 85 215 265 271 279 288 289 287 288 283 269 259 217 173 265 274 249 236 231 247 266 269 261 257 257
164 167 165 160 175 217 134 138 348 157 170 174 170 175 234 211 173 101 174 182 179 183 212 196 201 216 204 210 214 198 201 215 204 193 192 189 186 198 210 208 215 222 214 219 223 207 219 242 224 213 228 202 57 40 52 72 65 33 5 230 234 353 188 169 270 288 293 296 288 290 331 20 14 309 325 334 324 315 291 231 198 197 223 235 250 265 259
176 179 177 172 178 171 151 162 218 189 186 184 176 190 277 198 163 76 183 191 195 210 217 200 208 208 208 215 209 206 217 210 206 206 200 199 198 202 216 201 185 229 228 225 224 211 215 238 219 170 207 123 75 37 48 69 82 76 56 40 67 181 211 131 175 244 259 265 267 268 37 30 350 299 304 312 303 295 293 278 263 259 243 236 254 271 271
185 191 189 182 182 181 178 193 219 215 198 189 191 241 272 201 191 161 166 199 220 248 245 230 228 209 207 216 213 215 222 212 199 209 215 222 216 218 256 161 111 225 236 230 225 218 209 212 225 292 155 135 108 79 70 74 90 101 79 32 42 90 270 216 208 230 244 252 265 285 302 295 286 288 288 284 279 276 275 264 258 272 293 279 261 265 277
194 196 191 189 194 195 194 197 206 224 217 193 200 254 260 230 222 185 163 185 215 234 235 222 224 216 206 205 209 217 222 218 199 205 217 220 209 216 232 212 194 205 217 221 227 227 217 212 223 228 215 184 124 114 87 78 101 113 102 19 82 118 242 235 223 235 244 254 271 287 292 283 275 280 279 274 275 273 261 255 261 286 298 273 265 275 282
201 203 205 214 215 210 210 212 216 235 241 192 194 238 237 241 273 217 195 199 200 212 221 211 210 218 219 213 216 223 222 215 204 197 192 185 209 214 209 209 210 210 213 218 217 220 224 226 229 222 211 187 147 124 78 80 167 138 98 130 115 125 243 250 244 257 261 265 272 277 281 285 281 277 276 277 276 269 261 263 268 269 264 264 273 277 273
212 217 229 235 225 218 219 221 220 235 254 218 219 251 235 226 292 286 301 267 202 202 206 201 207 219 223 228 230 230 230 223 201 158 155 187 234 221 216 215 213 218 226 222 215 220 220 230 241 210 139 118 141 139 61 66 179 126 84 159 120 120 237 248 245 263 269 268 271 278 286 289 284 276 273 271 269 267 268 270 269 264 262 267 273 272 271
222 232 242 236 224 221 223 221 220 231 249 249 245 253 249 261 318 284 325 321 220 171 198 192 199 218 222 227 231 229 234 232 198 144 166 190 194 204 222 225 203 45 246 227 231 232 149 141 189 117 102 85 93 129 69 93 125 94 75 305 309 294 241 259 298 292 277 267 269 279 279 277 279 276 270 266 266 271 271 269 271 273 271 269 271 273 277
234 241 240 229 223 223 222 220 220 224 233 241 244 250 250 276 317 295 300 235 180 94 207 195 194 214 219 222 227 224 227 230 216 164 167 163 165 186 193 182 123 78 41 306 292 103 95 100 106 93 102 113 65 41 54 102 114 110 98 159 297 263 264 310 357 273 267 268 275 276 271 276 273 266 263 261 263 267 264 262 267 269 271 275 277 276 277
237 234 228 223 222 222 219 218 218 218 226 232 242 262 253 253 274 261 268 260 187 157 169 198 204 218 217 215 220 223 230 230 223 220 109 73 63 120 142 137 126 133 162 68 71 101 100 96 88 80 88 86 68 74 95 109 136 161 162 175 209 193 185 256 244 248 262 269 275 279 281 279 265 257 254 253 254 257 258 260 261 259 263 271 270 264 252
230 225 221 220 222 222 218 216 214 215 221 226 236 274 287 298 292 254 226 261 216 163 162 199 211 220 220 213 215 219 222 221 224 229 197 102 61 47 103 132 140 148 146 114 97 98 96 93 87 87 102 95 62 143 194 208 188 172 165 172 201 195 183 207 234 246 261 268 289 353 225 251 259 246 217 234 245 255 261 261 258 258 260 257 263 268 225
227 225 222 220 221 222 219 218 217 215 218 224 241 269 281 303 313 286 239 241 213 162 173 215 217 214 224 211 197 179 165 176 217 236 122 119 92 59 88 137 154 163 144 128 115 100 90 84 66 55 102 178 236 245 239 237 223 198 189 191 197 200 196 208 226 236 253 270 299 272 240 244 256 181 201 232 245 247 255 262 262 263 268 273 280 290 85
225 226 225 222 221 220 221 220 219 217 216 221 238 253 251 243 271 285 264 245 234 187 174 198 180 123 120 128 112 95 92 79 48 56 96 112 110 88 61 84 121 136 136 122 102 89 70 26 13 326 274 242 253 254 242 237 234 223 210 204 199 200 206 213 220 232 249 242 228 239 252 266 274 255 236 241 251 240 252 268 264 256 260 271 286 94 94
222 223 224 226 223 220 221 222 221 219 216 217 229 243 241 223 227 273 289 251 261 216 163 163 157 144 149 136 115 97 85 75 54 48 70 100 123 116 69 52 85 110 116 98 76 81 78 7 359 302 276 171 330 270 245 234 232 225 219 217 209 200 204 216 228 230 230 227 230 250 287 292 272 264 271 139 192 211 227 261 260 256 249 167 128 114 100
225 222 222 225 224 222 222 222 221 220 216 215 223 236 239 219 221 263 301 225 260 259 191 189 178 160 165 163 145 137 126 117 101 64 43 46 83 83 47 51 72 85 91 86 96 133 140 164 169 232 231 182 212 280 259 240 243 225 215 213 208 204 202 202 226 240 231 241 252 257 272 272 253 223 222 161 127 113 90 278 276 305 326 127 126 122 109
228 226 224 224 224 223 223 224 222 220 218 215 218 231 239 223 217 247 299 345 241 250 240 255 134 146 158 163 159 161 164 161 146 109 67 81 104 84 27 22 39 66 92 98 158 168 154 176 181 196 214 187 167 256 289 7 314 343 73 98 134 194 205 192 215 246 237 240 252 246 252 263 201 170 188 178 135 70 27 351 294 261 64 100 110 122 129
229 229 228 226 225 222 220 221 221 220 219 214 212 222 232 221 207 213 242 285 236 249 314 19 76 136 149 155 168 172 165 157 151 132 153 166 127 101 27 9 17 53 137 142 162 159 170 199 192 203 232 177 139 209 249 125 189 255 58 65 83 130 197 189 209 234 232 233 245 243 250 260 193 177 191 185 138 72 28 314 271 202 174 135 120 142 171
230 230 229 228 228 224 221 220 219 219 219 216 212 216 225 217 203 200 202 210 240 268 303 130 158 171 157 152 167 161 140 151 147 116 104 115 113 131 154 120 18 308 193 159 162 162 177 206 196 190 234 203 129 166 218 153 174 207 168 123 115 150 203 212 215 228 231 234 245 250 250 242 212 209 218 180 95 58 288 263 251 183 199 195 151 177 208
233 233 233 234 233 229 226 224 221 219 218 215 213 216 221 216 202 196 193 192 227 246 210 141 180 237 61 101 109 90 96 154 149 127 120 146 153 136 129 113 267 247 178 156 189 187 174 210 210 162 201 229 161 163 219 199 185 178 163 158 159 146 148 239 226 226 228 231 241 256 264 237 171 205 263 161 108 162 239 237 186 172 202 215 190 203 219
237 237 237 237 236 233 232 231 229 225 221 218 217 218 219 217 206 197 194 190 225 260 262 194 203 233 225 137 147 154 142 142 165 153 153 185 154 119 105 270 218 150 143 157 194 219 176 195 216 168 188 223 190 140 225 237 236 188 165 176 194 170 166 230 223 207 210 231 236 241 261 240 137 119 334 215 184 207 201 174 186 191 197 210 214 219 223
239 239 238 238 238 236 236 236 234 230 227 224 221 221 221 219 211 202 202 207 216 256 251 216 200 219 233 226 200 183 168 165 184 181 146 158 170 145 146 195 174 149 157 163 176 224 186 175 200 194 195 218 196 146 146 181 281 249 175 150 247 200 175 209 228 190 175 212 228 210 210 206 160 152 185 217 220 212 164 155 201 212 201 205 218 231 229
240 239 238 238 238 236 234 236 234 230 230 227 222 219 220 219 214 207 207 214 224 241 261 285 260 237 239 239 231 212 191 186 197 196 126 129 193 202 161 145 156 171 178 137 147 198 185 161 179 190 193 211 220 214 171 146 252 273 194 131 228 215 196 206 234 229 195 209 237 233 232 238 186 171 192 221 244 248 204 178 197 218 216 213 216 232 237
241 241 240 239 239 237 234 236 233 230 230 228 221 217 216 217 215 208 204 211 228 246 254 266 280 268 248 238 233 226 217 215 226 233 188 155 187 223 195 149 150 170 169 153 160 166 166 169 172 174 194 200 195 207 215 203 206 217 213 217 224 226 224 220 234 255 258 249 251 264 280 271 247 218 208 215 234 246 231 214 226 235 229 219 210 216 228
240 240 240 241 241 239 237 237 237 234 231 229 225 221 218 217 213 202 192 198 225 239 241 240 238 240 233 223 220 222 222 223 225 225 217 204 184 194 210 186 159 140 206 212 187 128 133 180 177 185 210 192 161 174 209 224 213 189 205 245 248 237 242 242 239 253 265 253 236 239 252 256 255 251 240 232 238 244 236 227 231 230 222 216 211 213 215
243 241 240 240 241 241 240 238 237 237 235 232 229 223 217 216 210 198 189 194 203 199 221 226 226 232 233 225 215 218 222 221 217 217 221 221 211 204 210 193 182 186 199 199 163 116 139 192 180 218 226 197 172 189 196 201 203 183 190 228 246 229 230 236 235 238 245 244 238 241 249 253 254 252 246 241 243 243 239 234 228 222 220 214 204 197 192
246 244 242 241 241 241 242 240 238 237 235 234 232 226 219 217 211 202 197 194 147 211 223 241 242 230 222 218 220 223 223 222 217 215 219 221 220 222 222 202 179 182 167 148 161 170 198 204 197 228 234 212 199 216 215 212 222 209 205 223 235 229 232 236 232 235 248 251 240 242 253 259 257 250 244 242 243 243 243 242 239 240 240 222 199 190 185
246 245 244 244 243 243 243 243 243 242 238 235 233 230 226 220 212 207 204 196 171 242 225 227 272 205 195 211 224 224 220 218 215 215 216 217 219 222 219 208 172 150 134 144 182 174 192 217 218 224 232 232 229 232 236 237 237 237 238 238 235 234 242 247 246 245 250 247 232 230 241 251 252 249 244 239 237 237 238 237 237 239 229 202 190 201 200
246 246 244 245 246 245 243 242 243 244 243 240 235 233 234 228 219 218 215 207 203 217 228 201 243 90 187 223 225 218 215 214 212 211 213 213 214 217 214 205 193 183 180 195 202 185 201 217 220 221 222 231 241 240 239 245 244 240 240 237 232 231 236 238 241 244 245 241 229 218 224 240 247 249 249 240 224 220 226 229 229 228 216 195 190 202 209
247 247 247 248 247 247 246 244 243 244 244 242 238 234 236 233 227 226 223 215 212 219 299 173 201 83 168 214 207 203 207 209 206 207 211 211 211 213 212 207 203 202 203 205 203 212 220 216 216 226 204 163 190 229 229 234 239 237 238 237 235 236 239 240 246 253 253 251 242 226 229 246 249 247 251 249 227 214 218 222 221 216 201 187 190 200 208
249 248 249 249 247 247 248 245 243 243 240 236 232 228 231 232 226 225 223 218 213 212 211 203 214 213 172 159 175 190 196 197 198 203 207 207 209 211 210 209 208 202 203 208 208 212 220 214 220 233 214 182 186 216 211 214 234 242 242 241 239 240 243 241 244 249 251 252 252 242 242 254 259 257 256 251 231 213 211 212 212 201 179 171 178 179 175
251 249 250 249 247 248 249 247 248 248 240 226 210 185 88 221 225 224 221 215 209 205 208 231 215 199 64 182 183 189 190 188 190 198 202 204 211 212 207 205 206 203 203 209 211 211 214 212 216 227 221 212 216 223 199 215 244 247 244 240 237 240 244 243 242 245 249 253 257 256 256 259 263 266 264 252 224 201 193 181 161 152 146 142 146 145 145
252 251 250 250 248 249 249 248 249 250 244 231 219 221 225 216 225 227 216 208 203 195 171 223 215 159 171 213 207 190 186 184 185 193 198 200 204 206 202 200 201 205 203 198 199 210 211 209 217 229 227 217 218 226 207 219 238 247 246 244 241 239 241 243 244 245 247 247 251 257 259 255 251 254 258 246 195 175 170 146 123 124 125 118 114 123 135
255 253 251 250 250 249 248 247 246 250 253 247 241 242 240 235 242 240 201 195 193 178 126 194 215 201 189 219 5 177 176 175 182 194 197 196 193 193 199 197 194 203 202 195 193 205 197 199 215 227 223 207 207 228 226 227 238 246 247 248 248 245 243 245 247 248 248 243 235 239 249 252 251 250 242 163 131 135 138 132 125 121 121 125 129 137 144
255 256 252 252 252 251 251 249 244 243 247 244 242 245 243 236 235 225 189 179 174 112 176 180 169 202 177 24 357 184 173 165 183 196 194 189 181 178 189 192 192 204 202 185 175 193 201 200 208 213 207 201 210 228 239 239 241 244 247 250 250 249 251 254 253 250 250 247 241 242 248 249 214 139 131 128 127 124 125 131 135 132 137 166 186 176 164
256 257 254 254 255 255 256 253 243 236 234 228 232 243 244 240 241 228 199 181 166 20 208 183 177 187 170 32 299 197 176 172 189 187 179 175 173 173 177 185 196 207 194 155 154 199 209 199 184 183 196 206 213 222 235 239 239 240 244 248 248 247 248 252 253 251 253 256 258 254 206 136 148 168 171 165 158 145 136 142 154 158 168 196 201 180 168
257 258 257 256 254 256 260 251 235 225 216 210 221 236 244 244 238 219 201 191 188 209 187 166 191 194 184 206 236 174 157 170 185 164 155 154 164 172 172 174 193 202 158 131 184 216 212 193 166 184 202 208 219 227 229 232 237 240 242 245 246 241 237 244 251 253 253 305 60 113 131 158 194 201 179 167 165 157 157 165 169 176 190 202 194 179 176
253 257 258 252 247 253 259 236 218 217 220 215 208 212 219 215 202 194 195 198 208 211 180 192 221 197 181 207 219 133 140 176 176 145 154 152 141 169 170 171 189 185 142 175 208 215 206 183 173 206 216 218 228 234 232 230 235 240 242 244 246 239 236 243 247 236 180 82 50 48 97 194 228 214 184 181 178 169 175 184 184 187 198 199 188 176 172
248 251 246 233 215 228 230 207 204 216 218 203 181 170 175 170 154 166 189 196 196 189 185 229 223 188 162 196 184 147 151 168 135 127 162 155 126 148 163 189 197 186 187 214 209 186 173 182 194 217 228 231 235 239 238 234 235 239 239 239 241 238 233 230 205 168 164 201 251 237 210 234 243 232 213 201 190 180 184 186 176 170 176 176 164 153 153
237 233 230 217 197 208 227 204 188 197 196 186 175 170 167 157 163 182 184 176 186 184 183 210 215 197 190 203 200 166 152 155 157 175 181 167 165 177 180 198 197 182 209 226 191 152 174 204 202 216 231 235 236 238 237 234 237 241 236 226 227 225 211 196 178 175 192 220 232 204 189 218 232 222 211 204 189 169 156 148 145 148 149 146 146 148 157
228 214 209 213 215 232 247 193 168 172 174 171 173 186 189 180 186 180 160 172 203 200 182 195 210 205 201 206 213 205 176 166 174 185 183 178 171 152 145 183 178 163 206 223 180 148 193 212 198 216 232 232 230 235 237 234 235 237 225 200 186 161 144 144 137 133 142 122 85 83 91 82 102 174 187 187 178 169 163 153 148 147 146 148 158 171 187
206 200 208 216 210 213 202 179 168 167 170 178 190 191 187 193 207 187 158 176 192 208 189 168 181 204 210 209 211 207 184 163 154 159 172 187 162 120 148 201 192 156 205 213 162 139 199 215 207 223 231 226 224 232 237 232 221 208 179 150 135 123 119 114 90 70 89 106 97 75 70 70 64 64 92 141 156 160 157 145 139 144 153 162 176 189 201
209 209 211 206 179 178 183 180 174 172 190 190 198 208 199 180 144 114 193 193 189 191 187 175 185 200 200 191 196 207 185 145 116 114 160 191 180 143 163 198 196 189 206 192 130 140 196 214 225 232 229 223 225 230 230 219 198 174 145 122 117 118 122 119 101 76 83 108 115 98 86 85 76 68 76 93 106 113 121 133 145 156 168 181 190 198 208
225 223 215 188 149 168 201 213 220 160 167 180 192 189 180 171 145 188 206 217 194 164 165 166 165 162 151 152 158 243 114 139 133 134 178 185 153 130 162 197 203 205 196 103 125 188 203 212 230 234 224 218 227 226 209 175 148 130 110 98 102 108 112 117 114 97 88 98 110 115 111 104 96 91 99 109 111 109 113 133 154 164 178 195 209 221 234
214 211 197 170 167 180 201 213 192 184 203 208 193 184 189 196 196 192 193 194 184 180 180 163 147 155 170 165 133 96 154 160 134 132 180 174 134 146 188 200 194 169 73 112 191 213 226 231 234 231 220 221 229 218 181 148 137 130 119 107 107 110 112 116 119 113 104 104 110 113 113 111 110 109 112 115 118 124 129 142 163 183 199 215 232 245 254
181 143 148 199 217 192 183 177 158 190 211 208 194 195 206 204 199 201 201 175 148 156 166 164 159 164 172 162 113 134 167 149 125 149 174 161 161 184 192 184 149 128 159 199 201 220 244 241 227 217 224 228 221 185 151 147 148 144 136 131 133 135 133 131 129 125 121 122 122 120 120 121 122 124 125 127 136 148 157 165 178 192 202 218 238 252 258
169 142 166 206 222 199 191 204 197 182 205 214 206 207 211 207 201 196 178 146 142 162 173 172 169 171 176 167 108 138 150 137 150 176 155 143 182 198 157 117 127 154 188 212 215 221 234 236 225 219 228 224 182 141 140 143 139 138 141 146 150 146 134 128 126 125 126 129 128 125 124 127 129 131 134 139 148 164 182 192 199 205 215 228 242 255 264
198 171 166 212 228 205 207 222 213 177 180 229 234 237 238 226 196 180 178 168 164 167 166 156 140 152 174 156 116 140 168 164 170 174 148 139 175 175 93 127 189 185 195 216 224 225 232 236 229 223 218 170 132 137 148 145 143 146 142 139 140 137 130 126 125 123 126 130 128 123 123 128 131 132 131 133 147 182 213 224 224 223 230 242 255 266 271
200 172 175 200 210 207 212 215 174 151 205 212 359 318 307 298 163 191 222 200 166 156 157 153 131 115 136 125 115 131 153 160 168 180 156 128 130 128 131 197 218 212 203 218 227 228 228 230 226 209 162 133 141 151 153 151 153 148 135 131 137 138 133 130 126 123 126 128 126 123 126 129 133 137 138 136 146 218 227 241 248 246 250 258 266 270 272
106 130 175 177 196 226 224 159 121 199 218 148 67 357 317 278 242 248 264 220 175 164 154 143 131 131 144 133 117 140 180 182 171 168 141 134 172 190 173 182 213 222 215 215 224 226 223 213 148 110 112 123 134 137 136 138 138 131 126 133 138 135 132 130 125 122 125 126 125 125 130 133 137 145 152 155 158 178 210 246 269 278 277 272 270 271 274
47 90 140 136 176 229 184 115 135 208 209 136 122 207 197 222 257 279 312 312 183 135 106 95 104 120 122 116 119 178 209 193 167 158 168 180 191 188 173 195 217 220 214 212 220 223 191 133 119 126 131 124 109 108 116 121 118 116 117 120 120 121 125 126 122 120 122 125 127 130 132 133 138 147 158 175 203 234 260 277 290 300 299 291 282 278 279
189 207 221 177 174 186 154 126 148 203 198 183 197 203 177 172 242 283 325 337 136 128 127 138 130 113 120 159 180 186 189 157 152 171 191 189 171 168 198 222 226 220 206 218 349 32 38 43 73 134 144 130 119 116 116 113 112 115 117 117 118 120 119 118 120 123 124 126 133 138 139 140 151 168 183 203 231 272 301 315 332 342 328 315 306 293 286
152 157 225 107 100 113 129 138 160 180 161 152 178 199 131 147 220 312 334 319 194 179 173 137 105 116 161 194 179 131 60 64 163 182 196 194 174 176 200 220 221 202 120 90 84 63 29 14 26 94 147 136 126 124 121 115 113 116 120 122 124 124 123 123 126 129 130 134 144 150 152 159 176 188 194 199 209 273 303 316 334 340 327 316 311 303 295
Height
770 771 772 774 775 776 776 777 778 778 780 782 784 786 786 785 782 780 780 781 782 785 786 783 785 786 781 780 781 782 783 784 783 784 786 786 786 788 789 786 786 786 785 785 787 788 791 790 787 788 787 784 784 784 783 784 785 787 792 794 795 798 800 804 804 795 788 784 780 779 780 781 786 787 787 790 794 793 796 802 804 806 802 792 794 794 783
770 772 773 774 775 776 776 777 778 778 780 782 784 786 784 781 780 780 781 781 781 782 780 778 782 782 779 779 780 779 780 781 781 782 784 783 783 786 786 783 783 782 781 784 785 787 792 791 786 786 787 786 788 787 784 786 789 792 795 795 798 802 802 806 813 809 801 796 790 786 785 789 795 795 793 794 794 795 797 799 804 809 800 793 801 799 783
769 771 773 774 775 776 776 777 778 779 781 781 783 784 781 779 780 780 779 780 780 776 771 772 775 776 777 778 778 778 778 776 776 778 779 779 780 783 783 781 782 781 781 784 784 785 790 791 787 785 787 788 790 789 788 789 792 797 798 795 797 804 802 804 814 818 815 810 801 795 796 800 802 799 797 797 796 796 798 799 803 805 794 790 800 796 781
769 771 772 774 775 776 776 777 778 779 780 781 782 782 779 776 777 779 780 779 777 773 770 771 772 770 773 776 775 776 776 773 773 776 777 778 779 782 782 781 782 783 783 785 786 785 787 789 788 787 787 790 791 792 791 793 796 799 799 796 799 806 806 804 809 812 811 808 800 795 799 804 805 802 799 798 797 796 799 803 805 801 798 798 795 787 784
769 771 772 773 774 775 776 777 778 779 779 780 781 781 779 775 770 769 773 775 774 773 771 772 771 768 769 771 769 768 770 772 774 776 776 776 778 781 782 781 783 785 784 786 788 785 785 787 788 788 788 788 791 794 795 797 800 799 799 800 802 809 811 806 806 808 806 803 801 798 800 804 804 803 801 798 796 796 798 802 800 797 803 804 790 783 789
769 770 771 773 774 774 775 776 777 778 778 779 780 780 777 773 766 760 761 766 767 767 765 766 769 768 767 766 764 764 766 768 773 776 775 775 777 779 781 780 781 782 782 786 787 785 785 786 784 785 787 787 792 797 799 801 802 800 801 801 802 810 813 806 806 810 806 803 804 802 802 804 803 802 802 799 797 797 798 799 796 795 801 798 787 784 788
768 769 770 771 772 773 774 775 776 777 778 778 780 778 772 769 767 762 760 761 760 759 758 762 767 768 768 768 765 764 764 763 767 773 777 779 777 777 780 778 777 779 779 784 786 784 785 787 784 786 790 790 792 797 800 803 802 802 804 803 803 812 815 807 808 813 809 807 806 805 806 808 805 804 803 799 796 795 795 796 793 791 793 788 784 785 783
767 768 769 770 771 772 773 774 775 776 777 777 778 777 772 769 768 765 763 763 762 761 759 761 766 766 767 769 765 764 765 764 765 769 774 779 778 776 779 778 779 783 781 781 783 782 784 787 787 791 796 794 794 797 800 802 804 805 808 806 805 813 815 807 808 817 815 809 808 809 809 810 810 808 803 798 797 796 796 796 792 792 791 785 784 787 783
765 766 767 768 769 771 771 773 774 774 776 776 775 774 772 771 770 768 767 764 762 764 762 760 763 765 765 765 764 764 766 763 765 769 770 772 773 773 775 778 784 789 785 783 785 786 789 792 792 795 798 797 799 801 801 803 807 809 811 811 809 813 815 809 812 824 821 810 810 813 810 812 815 810 802 799 800 799 796 793 792 791 789 786 787 789 785
763 764 766 766 768 769 770 771 773 773 774 775 774 773 771 771 770 769 770 765 760 762 763 761 762 761 758 759 759 761 763 760 763 770 772 773 774 772 772 777 783 788 788 789 792 792 793 795 796 798 800 800 801 803 804 805 808 810 811 812 811 813 816 816 818 825 822 811 811 813 814 822 819 803 795 796 796 795 793 791 789 786 785 788 790 787 784
761 762 764 765 766 767 768 770 771 772 773 773 773 772 770 771 770 768 769 767 761 759 762 762 761 756 752 755 756 758 760 760 761 765 771 776 778 775 774 777 782 786 790 793 794 794 794 797 798 799 800 803 803 804 806 806 807 809 810 813 814 812 816 820 819 823 824 814 810 816 824 824 807 786 783 788 788 789 790 789 786 782 781 783 783 782 785
759 760 762 763 764 766 766 768 769 770 771 772 772 772 770 771 771 768 768 767 761 758 762 762 758 756 755 755 757 759 762 764 764 765 770 777 780 779 777 778 781 787 792 793 793 794 796 797 799 800 802 804 804 805 807 806 806 807 806 810 814 814 817 820 818 821 823 816 818 830 827 807 788 781 781 782 782 784 786 785 783 781 781 780 780 784 789
757 758 759 761 762 764 765 766 767 768 769 771 771 771 771 770 771 769 767 766 761 758 761 761 757 758 760 758 761 766 768 769 771 770 771 777 782 783 781 781 784 788 791 792 792 795 800 801 803 804 803 804 806 806 805 805 805 805 805 807 810 813 817 818 817 819 820 820 824 825 809 790 784 784 781 781 783 784 785 788 785 779 780 782 785 791 794
754 756 758 758 760 762 763 764 765 766 768 769 769 770 770 769 771 769 767 767 764 757 758 762 762 762 763 762 766 771 773 774 776 775 775 779 782 784 785 785 788 789 790 792 794 799 804 806 807 809 806 807 813 809 801 800 802 802 803 803 804 809 814 816 819 819 817 821 819 807 797 792 788 785 784 785 787 785 789 796 791 781 782 785 788 795 797
752 753 755 756 757 759 760 761 763 764 765 767 768 769 769 768 770 769 767 768 767 759 756 759 761 762 764 765 767 772 775 777 778 779 782 783 785 788 789 789 790 790 790 794 798 800 805 808 811 813 808 808 815 811 801 800 800 798 801 801 800 805 808 812 819 815 808 814 816 809 808 801 787 785 789 788 788 787 788 796 795 787 787 787 788 794 797
749 750 752 753 755 756 758 759 761 762 763 765 766 767 767 767 768 769 768 768 768 764 758 756 756 760 764 765 766 769 773 776 779 783 787 787 788 792 792 791 792 792 792 797 800 800 804 809 810 810 806 804 806 805 802 804 803 801 804 802 801 804 804 806 816 815 808 812 815 810 806 794 783 786 790 787 788 786 786 795 797 790 790 791 790 793 795
746 748 749 751 752 754 756 757 759 760 762 763 764 765 766 766 767 768 768 768 768 766 760 756 757 760 763 766 767 767 769 771 774 779 784 787 790 794 795 794 794 794 795 799 801 801 805 808 808 808 805 800 800 802 802 804 804 804 809 809 807 810 809 808 815 815 809 810 811 805 798 789 784 787 788 786 785 784 794 806 799 788 791 792 789 793 794
744 745 747 748 749 751 753 754 756 758 759 760 762 764 764 765 766 767 767 768 769 767 760 757 760 761 762 764 765 764 765 766 768 774 782 787 790 792 795 796 797 797 797 799 802 804 808 808 805 807 806 799 799 803 801 797 797 800 804 808 810 814 814 811 812 811 808 808 809 803 793 784 782 784 783 782 784 790 802 804 790 786 792 790 787 791 792
741 742 744 745 747 748 750 752 753 755 756 758 760 761 762 763 764 765 766 766 767 766 761 758 760 761 760 761 762 764 765 765 766 774 783 788 787 788 791 794 795 796 798 800 802 802 806 807 800 801 806 801 797 801 798 792 792 793 795 800 806 811 814 811 808 809 808 805 805 804 794 780 777 781 780 781 789 796 795 787 783 786 789 787 787 789 788
738 739 741 742 744 745 747 749 750 752 754 756 757 758 759 761 761 763 764 764 765 765 761 759 760 760 760 761 762 764 765 766 767 770 776 781 782 786 793 794 793 793 796 802 804 798 800 805 799 796 804 802 795 798 800 796 792 790 789 793 795 798 806 809 801 798 801 801 803 806 797 780 776 782 781 781 787 788 782 780 785 786 783 783 786 785 784
735 736 737 739 740 742 744 745 747 749 750 752 755 756 757 758 759 760 762 763 764 763 761 759 759 760 760 760 760 762 763 765 766 766 770 776 779 782 787 785 785 788 789 795 802 796 793 800 799 794 798 798 792 796 800 800 797 791 788 792 793 790 794 798 790 785 793 798 794 790 783 775 774 779 779 778 778 777 776 779 782 783 782 782 782 781 782
732 733 734 736 737 738 741 741 743 745 746 748 751 753 753 755 756 759 761 761 762 761 759 758 758 758 759 759 760 762 762 762 764 763 767 774 776 776 777 775 777 781 780 784 794 792 788 794 796 793 796 796 792 793 795 798 800 795 790 795 794 784 780 784 781 775 778 781 776 771 771 771 773 774 774 773 773 773 775 776 777 778 780 779 778 779 779
729 730 731 733 734 735 737 738 740 742 743 745 748 749 750 752 754 757 759 759 760 759 758 758 760 758 757 757 759 761 761 762 763 763 765 771 774 773 773 773 775 777 775 777 784 784 784 788 788 789 794 793 791 793 793 793 794 791 788 789 785 776 774 777 777 772 771 771 768 768 769 770 769 771 771 771 771 770 771 773 773 773 774 773 774 775 775
725 726 728 730 731 732 734 735 737 739 740 742 744 745 747 749 751 753 756 758 760 759 758 759 758 753 751 753 756 759 759 760 762 763 763 766 770 772 771 770 772 774 775 775 776 776 780 783 783 785 788 785 785 790 793 792 789 785 785 786 781 775 775 776 774 774 775 773 768 766 768 767 766 768 768 767 768 768 768 769 769 768 769 770 770 771 772
722 723 724 726 727 729 731 732 734 736 737 739 740 742 745 746 747 750 753 754 756 757 756 754 749 744 746 752 754 754 755 757 759 762 762 762 764 767 768 766 767 771 772 774 774 776 779 780 780 784 784 778 778 783 786 787 784 780 784 787 780 774 773 773 772 772 773 770 766 764 765 764 763 765 766 765 765 764 764 765 765 765 766 766 766 768 769
719 720 721 722 724 726 728 729 731 732 734 735 737 739 740 742 744 746 749 750 752 754 754 749 743 741 746 750 748 748 751 755 756 758 759 760 761 763 764 765 766 768 769 772 773 775 777 778 778 781 780 775 774 775 776 778 776 774 777 778 773 770 769 766 766 767 767 765 764 763 764 764 761 761 762 761 761 761 760 761 761 761 762 763 764 765 766
716 717 718 719 721 722 724 726 727 729 730 732 734 736 737 738 740 741 743 747 750 750 748 745 740 741 743 743 742 744 748 751 753 754 756 757 759 760 762 764 766 767 769 772 773 774 776 777 776 776 775 771 770 770 770 770 770 771 773 769 766 767 766 762 764 768 767 763 761 761 763 763 759 756 757 757 757 757 757 758 758 759 760 761 762 763 764
713 714 715 716 717 719 721 722 723 725 727 729 731 733 734 735 737 737 738 741 743 741 740 741 740 742 742 739 738 741 744 746 748 750 752 754 756 758 759 761 764 766 768 771 773 773 775 775 773 771 770 769 770 771 769 768 770 773 771 764 760 760 759 757 760 763 759 755 754 755 757 757 754 752 752 753 753 753 754 754 755 755 756 757 759 760 762
710 711 713 713 714 716 717 719 720 721 724 726 728 729 730 730 732 734 734 736 738 738 738 741 742 741 739 735 734 736 740 742 745 747 749 751 753 754 756 757 760 762 764 766 769 770 770 769 767 767 765 765 769 771 769 769 772 770 761 754 752 752 751 751 753 753 750 749 749 750 752 752 749 749 749 749 750 750 750 751 752 752 753 755 756 757 759
707 708 709 710 712 714 714 716 718 718 720 723 725 726 727 725 724 725 727 731 735 736 737 738 737 735 732 731 732 734 735 738 741 743 745 747 749 749 751 753 755 757 760 762 764 765 765 764 763 763 761 761 766 768 766 767 767 759 749 747 748 748 747 747 748 748 746 744 745 746 747 746 745 745 745 746 746 747 747 747 749 750 751 753 754 756 758
704 705 706 707 709 711 711 713 714 716 718 720 721 722 723 720 716 717 721 725 730 733 734 733 731 731 730 729 728 728 730 732 735 738 740 743 744 745 747 750 752 753 755 758 758 759 760 761 760 759 757 757 761 762 762 765 763 751 742 742 744 743 742 743 742 742 742 742 742 744 744 743 743 743 742 742 743 744 745 746 747 749 750 752 754 756 757
701 702 703 705 706 707 709 710 711 713 715 716 715 715 715 713 712 713 716 720 725 728 730 730 729 729 729 727 725 725 727 729 731 734 736 737 739 741 743 746 747 747 749 754 757 756 755 755 756 755 752 753 757 758 759 760 755 743 737 738 739 737 738 739 738 738 739 739 741 742 742 740 739 738 738 739 741 742 743 746 748 749 751 753 755 756 758
698 699 700 701 702 704 706 706 708 710 711 712 712 710 709 710 712 713 715 719 722 724 725 727 726 725 724 724 723 723 725 728 730 732 732 732 734 737 739 741 742 744 745 749 751 751 750 750 751 751 749 750 754 756 753 749 741 735 733 734 733 733 733 734 734 734 735 735 737 738 737 734 734 735 736 738 741 742 743 746 748 750 751 753 755 757 758
694 696 697 698 699 701 702 703 704 706 707 708 707 704 705 709 711 712 714 718 721 722 722 723 723 722 723 725 724 720 720 723 725 728 729 728 729 733 736 737 739 741 741 741 743 746 747 745 746 747 747 747 750 751 746 738 732 730 730 729 727 729 731 731 731 730 730 730 731 731 731 731 733 735 737 739 741 743 744 746 748 749 751 753 754 755 757
692 693 694 695 696 698 699 700 701 702 702 703 702 700 704 708 709 710 711 713 717 720 719 719 719 719 723 728 726 719 717 719 720 722 725 725 725 727 731 734 737 737 735 735 738 741 739 737 740 744 744 744 746 744 736 728 725 725 726 724 723 726 728 728 727 725 725 727 728 729 730 732 732 733 735 737 740 743 744 746 748 748 749 751 753 754 755
689 691 692 692 693 694 695 696 698 697 697 697 697 699 703 706 707 708 709 708 711 712 712 714 715 714 715 720 718 714 716 719 718 718 721 724 725 726 727 731 732 730 730 733 736 735 730 728 734 740 740 738 735 728 721 719 721 720 719 718 718 720 723 723 721 721 723 726 728 729 730 731 730 731 734 736 739 742 743 745 747 747 747 748 750 751 753
687 689 690 690 691 692 693 692 692 692 693 694 696 699 702 703 705 708 709 708 708 708 708 710 710 707 707 709 709 711 716 717 716 717 722 724 725 725 726 728 728 727 729 732 729 724 721 724 731 734 731 725 719 713 711 714 716 714 712 712 713 715 717 717 716 718 723 727 729 731 732 733 732 732 733 734 737 740 740 740 742 744 744 745 747 749 751
685 687 687 688 689 690 689 687 686 688 691 693 695 699 701 702 704 706 707 707 706 706 706 707 704 702 704 706 706 709 712 713 715 719 722 723 725 726 726 725 723 723 726 725 718 716 720 723 726 726 720 712 708 707 708 710 708 705 705 708 709 710 712 712 714 717 719 721 723 726 728 729 729 729 731 731 733 736 737 738 740 742 743 744 746 748 750
683 684 685 686 686 685 683 682 683 686 689 691 693 695 697 699 701 702 702 703 702 701 702 702 699 698 701 704 704 704 705 709 715 718 718 718 721 723 725 724 720 720 723 720 712 714 719 719 718 718 713 707 704 703 701 701 701 700 701 704 705 706 708 709 711 713 714 714 715 718 721 722 721 723 727 730 732 735 737 738 740 742 743 745 747 748 750
681 681 682 682 681 680 680 681 682 684 687 688 689 691 693 693 693 693 695 698 699 696 695 694 693 692 693 695 698 699 698 701 706 710 712 713 711 714 721 723 717 718 722 716 709 712 715 713 712 712 705 699 697 695 693 694 695 696 699 701 703 705 708 710 712 714 715 717 719 721 723 724 723 723 726 728 730 733 736 738 740 742 744 745 747 748 750
678 678 679 678 677 678 680 681 681 682 684 684 686 687 687 687 688 689 689 691 691 689 687 687 689 689 687 687 690 693 694 694 696 700 707 709 707 711 718 717 712 714 717 709 703 708 711 708 707 703 694 689 689 687 686 689 692 694 699 703 704 706 709 711 715 717 717 719 723 725 727 728 728 728 728 728 730 733 736 738 741 743 744 746 748 748 750
675 675 675 676 676 677 679 679 678 679 679 680 681 682 681 682 685 687 685 682 679 677 679 680 681 681 680 681 684 688 690 692 693 697 703 706 704 706 711 710 708 710 708 699 698 705 707 704 700 692 683 681 684 682 683 686 689 693 701 705 706 708 710 712 715 719 720 720 724 727 728 729 730 731 732 732 733 735 737 740 742 743 744 746 747 748 749
672 673 674 676 677 678 678 676 675 675 677 677 677 677 678 679 680 680 678 676 673 672 674 675 675 676 677 678 683 687 689 689 691 696 699 700 700 703 708 707 705 703 699 696 697 700 699 695 689 680 675 677 679 678 681 686 691 698 706 709 708 710 712 713 716 720 721 722 724 726 728 730 731 732 733 734 735 737 739 740 742 744 745 746 746 747 748
671 672 674 675 674 676 677 673 668 670 673 673 671 669 669 671 672 671 670 671 672 671 671 671 672 675 676 677 681 687 689 688 690 694 696 697 699 702 704 702 699 697 697 697 696 695 691 684 677 672 672 674 675 676 681 688 694 700 707 710 711 712 713 715 717 719 721 724 725 726 728 730 731 732 734 735 736 738 740 741 742 743 744 745 745 746 747
669 671 674 674 672 671 671 667 663 663 663 661 660 660 658 658 660 661 661 662 665 667 668 668 668 671 674 677 680 684 685 687 691 693 693 694 696 697 696 695 695 696 696 695 694 693 687 677 671 671 670 669 671 679 687 691 694 699 703 708 712 714 714 715 717 719 721 724 726 727 729 730 731 733 734 735 736 738 739 740 742 742 743 744 744 745 745
665 666 669 670 667 664 662 661 659 658 654 648 647 649 649 648 650 652 654 657 660 663 664 664 665 667 672 677 680 681 682 686 689 689 689 691 693 691 690 691 695 697 696 693 690 685 676 667 665 668 667 666 673 686 693 695 698 700 701 705 710 713 714 716 718 720 722 725 726 728 730 731 732 733 735 735 736 738 738 739 741 741 742 743 743 743 744
660 660 663 666 663 659 657 655 653 652 650 646 644 646 647 646 646 648 650 653 655 657 660 662 663 666 670 674 677 679 681 682 683 683 685 687 689 689 690 692 692 691 689 684 678 672 666 661 660 662 664 669 679 689 695 698 701 701 702 705 710 713 715 717 719 720 723 725 727 729 731 732 733 735 736 736 737 738 738 739 740 740 741 741 742 742 743
654 655 657 658 655 651 650 649 647 647 649 651 651 653 653 650 645 646 649 650 650 653 658 661 663 667 671 673 675 679 680 681 681 681 680 682 685 688 691 692 690 683 677 672 666 661 658 657 660 666 674 680 685 689 695 699 701 702 704 708 711 713 715 718 720 722 724 725 727 729 731 732 734 735 736 737 738 738 738 739 739 740 740 741 741 741 741
650 652 655 656 652 649 649 650 648 647 649 653 654 655 655 651 647 647 650 651 649 650 653 655 658 664 670 674 676 678 679 679 678 678 679 681 683 681 682 685 683 676 668 663 658 654 657 665 674 682 688 691 691 692 696 700 702 704 707 709 712 714 717 719 720 723 724 726 728 729 731 732 734 735 736 737 738 738 738 739 739 739 739 739 739 739 739
649 652 655 656 653 652 653 655 652 648 649 651 653 653 653 652 650 651 654 654 650 650 653 655 658 663 670 675 678 678 676 673 672 673 675 676 675 673 675 676 671 661 655 656 658 661 670 682 690 691 691 694 695 697 699 701 704 707 710 712 714 716 718 719 721 724 725 727 728 730 731 732 734 735 736 737 738 737 738 738 738 738 738 738 738 738 737
649 650 650 649 647 647 648 650 650 647 647 648 649 650 652 652 652 654 658 657 654 652 654 656 660 665 671 673 673 671 669 667 667 669 669 667 665 667 667 663 654 649 654 666 677 683 688 693 694 694 694 697 698 699 701 703 706 709 711 714 716 717 719 720 722 724 725 727 728 730 731 732 734 735 736 736 737 736 736 736 736 737 737 736 737 737 736
647 647 648 649 650 649 648 646 646 646 647 649 651 652 653 654 656 659 660 659 656 654 655 657 661 666 669 668 665 665 666 666 665 664 661 658 657 657 655 651 653 661 672 680 688 693 696 696 697 698 699 699 699 701 703 705 708 710 713 715 716 717 719 720 722 723 725 727 728 730 731 733 733 734 735 736 736 736 735 735 735 735 736 735 735 735 734